Location: Waco, TX
(31.5480°N, 97.1670°W)
Time: 15:58:25
(UTC-05:00)

ISS - Pass Details

Date: 17 August 2019
Orbit: 410 x 421 km, 51.6° (Epoch: 22 August)

Event Time Altitude Azimuth Distance (km) Brightness Sun altitude
Rises 16:55:34 0° 322° (NW) 2,368 0.4 40.2°
Reaches altitude 10° 16:57:45 10° 329° (NNW) 1,501 -0.6 39.7°
Maximum altitude 17:00:58 41° 42° (NE) 624 -2.9 39.1°
Drops below altitude 10° 17:04:10 10° 114° (ESE) 1,493 -1.3 38.4°
Sets 17:06:19 0° 121° (ESE) 2,352 -0.3 37.9°
